Location: Unspecified
(0.0000°N, 0.0000°E)
Time: 02:52:32
(UTC+00:00)

Hubble Space Telescope - Pass Details

Date: 22 February 2024
Orbit: 510 x 514 km, 28.5° (Epoch: 15 June)

Event Time Altitude Azimuth Distance (km) Brightness Sun altitude
Exits shadow 03:54:48 14° 93° (E) 1,478 3.7 -34.0°
Drops below altitude 10° 03:55:29 10° 97° (E) 1,717 4.1 -33.9°
Sets 03:57:50 0° 106° (ESE) 2,602 5.4 -33.3°
